ROMMA est une association bénévole à but non lucratif. Votre soutien est indispensable : ADHERER à ROMMA ou FAIRE un DON

Die - (26, Drôme)

Diois (400 m)   Longitude: 5° 21' 55"E   Latitude: 44° 45' 16"N Station partenaire n°159
 

Détail journalier du     <<     >>

Température Precipitation Humidité Pression Vent Dir Rafale Dir. rafale Ensol.
Heure (°C) (mm) (%) (hPa) (km/h) (km/h) (min)
01:00 -0.309410221ESE3ESE0
02:00 -0.9094102203ESE0
03:00 -1.0095102203ESE0
04:00 -1.6095102203ESE0
05:00 -1.7095102202ESE0
06:00 -2.1095102203ESE0
07:00 -2.3095102203ESE0
08:00 -2.009510231NNO5NNO0
09:00 -1.2096102303ONO30
10:00 0.609510231SSO5ONO20
11:00 2.4090102203SSO20
12:00 4.208610221SSO3SSO0
13:00 5.707810222SSO5SSO0
14:00 7.907410202SSO6SO10
15:00 8.607210201SO6SO10
16:00 8.607210201NO5SO0
17:00 8.4075102002NO0
18:00 7.8082102102NO0
19:00 7.4084102100NO0
20:00 6.9090102102NO0
21:00 6.40.293102203NO0
22:00 6.3094102202NO0
23:00 6.30.295102203NO0
minuit 6.3095102203NO0

Graphique du 30-01-2020

 

Serveur OMMA